Flag for Albania Weather past 2 weeks in Tirana, Albania

Now
63 °F

Partly cloudy.


Feels Like: 63 °F
Forecast: 53 / 66 °F
Wind: 2 mph from North

Location: Tirana Airport


UV Index: 3 (Moderate)

Visibility: N/A


Pressure: 29.83 "Hg

Humidity: 83%

Dew point: 57 °F

Location of TiranaLocation

Historic Weather in Tirana

°F

Tirana temperature yesterday

Maximum temperature yesterday: 75 °F (at 3:50 PM)
Minimum temperature yesterday: 57 °F (at 1:50 AM)
Average temperature yesterday: 66 °F

Past Weeks' High & Low Weather Summary

 TemperatureHumidityPressure
High75 °F (Apr 23, 3:50 PM)94% (Apr 9, 9:20 PM)30.09 "Hg (Apr 9, 9:20 PM)
Low39 °F (Apr 12, 4:20 AM)26% (Apr 10, 3:20 PM)29.65 "Hg (Apr 16, 4:50 AM)
Average55 °F74%29.87 "Hg
* Reported Apr 9 8:20 PM — Apr 24 8:50 PM, Tirana, Weather by CustomWeather, © 2014

Note: Actual official high and low records may vary slightly from our data, if they occured in-between our weather recording intervals... More about our weather records

Advertising

Historic Weather Conditions — Data for Previous 24 hours

 ConditionsComfort  
Time TempWeatherWind HumidityBarometerVisibility
8:50 PM
Apr 24
63 °FPassing clouds.2 mph77%29.83 "HgN/A
8:20 PM63 °FPartly sunny.2 mph77%29.83 "HgN/A
7:50 PM63 °FPartly sunny.3 mph77%29.83 "HgN/A
7:20 PM63 °FBroken clouds.5 mph77%29.83 "HgN/A
6:50 PM63 °FPartly sunny.6 mph77%29.80 "HgN/A
6:20 PM64 °FBroken clouds.7 mph73%29.80 "HgN/A
5:50 PM66 °FBroken clouds.7 mph68%29.80 "HgN/A
5:20 PM68 °FBroken clouds.5 mph64%29.80 "HgN/A
4:50 PM68 °FScattered clouds.5 mph64%29.80 "HgN/A
4:20 PM70 °FBroken clouds.7 mph60%29.80 "HgN/A
3:50 PM70 °FBroken clouds.6 mph57%29.80 "HgN/A
3:20 PM70 °FBroken clouds.8 mph64%29.80 "HgN/A
2:50 PM68 °FBroken clouds.7 mph69%29.80 "HgN/A
2:20 PM70 °FBroken clouds.7 mph64%29.80 "HgN/A
1:50 PM70 °FBroken clouds.8 mph64%29.80 "HgN/A
1:20 PM66 °FMore clouds than sun.8 mph73%29.80 "HgN/A
12:50 PM66 °FMostly cloudy.7 mph73%29.80 "HgN/A
12:20 PM68 °FMore clouds than sun.7 mph64%29.80 "HgN/A
11:50 AM68 °FMore clouds than sun.3 mph69%29.80 "HgN/A
11:20 AM68 °FPartly sunny.3 mph60%29.77 "HgN/A
10:50 AM68 °FBroken clouds.3 mph64%29.77 "HgN/A
10:20 AM66 °FPartly sunny.2 mph68%29.77 "HgN/A
9:20 AM66 °FScattered clouds.3 mph78%29.77 "HgN/A
8:50 AM64 °FPartly sunny.2 mph83%29.74 "HgN/A
8:20 AM64 °FPartly sunny.No wind78%29.74 "HgN/A
7:50 AM63 °FPartly sunny.No wind83%29.74 "HgN/A
7:20 AM61 °FPartly sunny.2 mph88%29.74 "Hg5 mi
6:50 AM59 °FPartly sunny.3 mph94%29.74 "Hg5 mi
6:20 AM57 °FCool.2 mph94%29.74 "HgN/A
5:50 AM57 °FPassing clouds.No wind94%29.74 "Hg5 mi
5:20 AM59 °FPartly cloudy.1 mph88%29.74 "HgN/A
4:50 AM61 °FPassing clouds.2 mph88%29.74 "HgN/A
4:20 AM61 °FPassing clouds.3 mph88%29.74 "HgN/A
3:20 AM61 °FPassing clouds.3 mph83%29.74 "HgN/A
2:50 AM61 °FPassing clouds.3 mph77%29.74 "HgN/A
2:20 AM63 °FPassing clouds.2 mph73%29.74 "HgN/A
1:50 AM64 °FPassing clouds.3 mph68%29.74 "HgN/A
1:20 AM66 °FPassing clouds.3 mph64%29.74 "HgN/A
12:50 AM66 °FPassing clouds.7 mph64%29.74 "HgN/A
12:20 AM68 °FPassing clouds.10 mph56%29.74 "HgN/A
11:50 PM
Apr 23
68 °FPassing clouds.7 mph56%29.71 "HgN/A
11:20 PM72 °FPassing clouds.10 mph44%29.71 "HgN/A
10:50 PM66 °FPassing clouds.2 mph60%29.71 "HgN/A
10:20 PM64 °FThunderstorms. Passing clouds.2 mph73%29.71 "HgN/A
9:50 PM64 °FPassing clouds.5 mph73%29.71 "HgN/A
9:20 PM64 °FPartly cloudy.2 mph68%29.71 "HgN/A
Weather by CustomWeather, © 2014

See weather overview